Location: Baia Mare
(47.6567°N, 23.5850°E)
Time: 06:41:39
(UTC+03:00)

ISS - Pass Details

Date: 11 March 2020
Orbit: 417 x 423 km, 51.6° (Epoch: 29 March)

Event Time Altitude Azimuth Distance (km) Brightness Sun altitude
Exits shadow 04:44:38 70° 113° (ESE) 452 -3.6 -21.0°
Drops below altitude 10° 04:47:41 10° 115° (ESE) 1,506 -0.3 -20.6°
Sets 04:49:47 0° 115° (ESE) 2,370 0.8 -20.2°
